Location: Champs
(48.8539°N, 2.6040°E)
Time: 04:31:31
(UTC+00:00)

Cosmos 864 Rocket - Pass Details

Date: 26 October 2021
Orbit: 954 x 991 km, 82.9° (Epoch: 30 November)

Event Time Altitude Azimuth Distance (km) Brightness Sun altitude
Rises 03:40:44 0° 349° (N) 3,659 7.5 -27.8°
Reaches altitude 10° 03:43:14 10° 348° (NNW) 2,713 6.8 -27.4°
Maximum altitude 03:49:26 76° 264° (W) 1,005 4.3 -26.4°
Drops below altitude 10° 03:55:39 10° 180° (S) 2,720 6.7 -25.4°
Sets 03:58:10 0° 179° (S) 3,669 7.4 -25.0°
